Radiation Dose measured at exhaust stack monitor of Fukushima Daiichi Nuclear Power Station
Date,Time,Unit 5 6 shared exhaust cylinders,Wind Direction,Wind Velocity(m/s)
2021/08/26,00:00,3.9,northeast,2.9
2021/08/26,00:10,4.0,east,2.6
2021/08/26,00:20,3.8,east-northeast,2.5
2021/08/26,00:30,3.7,north,1.1
2021/08/26,00:40,3.9,southeast,0.8
2021/08/26,00:50,4.0,north-northwest,0.8
2021/08/26,01:00,3.9,east-southeast,0.6
2021/08/26,01:10,3.8,east-southeast,2.2
2021/08/26,01:20,3.9,east,2.2
2021/08/26,01:30,3.9,east-southeast,2.5
2021/08/26,01:40,3.9,east,1.5
2021/08/26,01:50,4.0,northeast,0.8
2021/08/26,02:00,3.8,southeast,2.2
2021/08/26,02:10,3.6,southeast,1.5
2021/08/26,02:20,3.8,east-southeast,1.4
2021/08/26,02:30,3.8,east-southeast,1.5
2021/08/26,02:40,4.1,east-northeast,1.5
2021/08/26,02:50,3.8,northwest,2.2
2021/08/26,03:00,3.7,north-northeast,1.9
2021/08/26,03:10,3.9,north,1.7
2021/08/26,03:20,3.8,northwest,3.1
2021/08/26,03:30,3.9,northwest,4.1
2021/08/26,03:40,3.9,west,1.7
2021/08/26,03:50,3.9,west-northwest,4.5
2021/08/26,04:00,4.0,west-northwest,6.1
2021/08/26,04:10,3.7,west-northwest,4.0
2021/08/26,04:20,3.9,northwest,2.2
2021/08/26,04:30,3.7,north-northwest,0.9
2021/08/26,04:40,3.7,northwest,3.7
2021/08/26,04:50,3.9,west-northwest,5.1
2021/08/26,05:00,3.8,west-northwest,6.3
2021/08/26,05:10,3.6,west-northwest,3.9
2021/08/26,05:20,3.8,west,3.4
2021/08/26,05:30,3.8,west,3.2
2021/08/26,05:40,3.8,northwest,0.9
2021/08/26,05:50,3.9,west-southwest,1.4
2021/08/26,06:00,4.0,-,CALM
2021/08/26,06:10,4.0,east-northeast,1.5
2021/08/26,06:20,3.8,east-southeast,1.1
2021/08/26,06:30,3.8,northeast,0.9
2021/08/26,06:40,3.9,west-northwest,0.6
2021/08/26,06:50,3.8,west-northwest,1.7
2021/08/26,07:00,3.9,west,2.2
2021/08/26,07:10,4.0,southwest,0.8
2021/08/26,07:20,3.9,west-northwest,2.8
2021/08/26,07:30,3.9,northwest,3.5
2021/08/26,07:40,3.9,northwest,5.0
2021/08/26,07:50,3.9,northwest,4.7
2021/08/26,08:00,3.9,northwest,3.0
2021/08/26,08:10,3.9,north-northwest,2.6
2021/08/26,08:20,3.7,north-northwest,2.5
2021/08/26,08:30,3.9,northwest,2.5
2021/08/26,08:40,3.9,northwest,5.1
2021/08/26,08:50,3.8,west-northwest,5.2
2021/08/26,09:00,3.8,northwest,2.3
2021/08/26,09:10,3.8,-,CALM
2021/08/26,09:20,3.9,south-southwest,0.6
2021/08/26,09:30,3.9,south-southwest,0.6
2021/08/26,09:40,3.9,east,1.5
2021/08/26,09:50,3.7,north,1.1
2021/08/26,10:00,3.8,east-northeast,0.9
2021/08/26,10:10,3.7,east,1.7
2021/08/26,10:20,3.7,east-southeast,2.6
2021/08/26,10:30,3.9,southeast,2.2
2021/08/26,10:40,3.9,southeast,2.5
2021/08/26,10:50,3.8,south-southeast,2.6
2021/08/26,11:00,3.8,southeast,2.5
2021/08/26,11:10,3.8,southeast,3.1
2021/08/26,11:20,3.9,south-southeast,4.1
2021/08/26,11:30,3.8,south-southeast,4.1
2021/08/26,11:40,3.7,south-southeast,3.3
2021/08/26,11:50,3.8,southeast,4.2
2021/08/26,12:00,3.8,southeast,3.0
2021/08/26,12:10,3.8,southeast,3.0
2021/08/26,12:20,3.8,southeast,3.3
2021/08/26,12:30,3.7,southeast,4.6
2021/08/26,12:40,3.9,southeast,4.4
2021/08/26,12:50,3.9,southeast,5.3
2021/08/26,13:00,3.8,southeast,5.4
2021/08/26,13:10,3.6,southeast,6.4
2021/08/26,13:20,3.8,southeast,6.4
2021/08/26,13:30,3.6,southeast,6.4
2021/08/26,13:40,3.8,south-southeast,5.0
2021/08/26,13:50,3.8,southeast,6.5
2021/08/26,14:00,4.0,south-southeast,6.6
2021/08/26,14:10,3.7,south-southeast,3.1
2021/08/26,14:20,3.7,southeast,1.1
2021/08/26,14:30,3.9,south-southeast,2.3
2021/08/26,14:40,3.9,south,3.0
2021/08/26,14:50,3.8,south,4.1
2021/08/26,15:00,3.7,south,2.5
2021/08/26,15:10,3.8,south,3.9
2021/08/26,15:20,4.0,south,2.8
2021/08/26,15:30,4.0,south-southwest,2.8
2021/08/26,15:40,3.7,south-southwest,2.6
2021/08/26,15:50,3.9,south-southwest,2.6
2021/08/26,16:00,3.8,south,3.2
2021/08/26,16:10,3.8,south,3.1
2021/08/26,16:20,3.8,south,3.1
2021/08/26,16:30,3.9,southwest,3.0
2021/08/26,16:40,4.0,west-southwest,5.8
2021/08/26,16:50,3.8,west-southwest,6.2
2021/08/26,17:00,4.0,west,5.0
2021/08/26,17:10,3.8,west,4.0
2021/08/26,17:20,3.9,west,3.5
2021/08/26,17:30,3.7,west,2.6
2021/08/26,17:40,3.8,west-southwest,2.5
2021/08/26,17:50,3.9,southwest,1.9
2021/08/26,18:00,4.0,southwest,1.7
2021/08/26,18:10,3.9,southwest,1.7
2021/08/26,18:20,3.9,west-southwest,1.5
2021/08/26,18:30,3.7,southwest,3.3
2021/08/26,18:40,3.9,south-southwest,4.3
2021/08/26,18:50,3.9,south-southwest,5.0
2021/08/26,19:00,3.9,south-southwest,4.4
2021/08/26,19:10,3.8,southwest,3.8
2021/08/26,19:20,3.8,southwest,4.5
2021/08/26,19:30,3.8,west-southwest,3.2
2021/08/26,19:40,3.7,west-southwest,3.1
2021/08/26,19:50,3.9,west-southwest,4.3
2021/08/26,20:00,3.7,west-southwest,3.7
2021/08/26,20:10,3.9,southwest,3.4
2021/08/26,20:20,4.0,southwest,3.6
2021/08/26,20:30,4.0,west-southwest,3.6
2021/08/26,20:40,3.8,west-southwest,2.8
2021/08/26,20:50,3.6,west-southwest,2.8
2021/08/26,21:00,3.8,west-southwest,3.7
2021/08/26,21:10,4.0,west,5.7
2021/08/26,21:20,3.9,west,5.8
2021/08/26,21:30,3.7,west,6.8
2021/08/26,21:40,3.9,west,7.2
2021/08/26,21:50,3.7,west,7.7
2021/08/26,22:00,3.9,west,7.3
2021/08/26,22:10,3.8,west,5.1
2021/08/26,22:20,3.9,west-southwest,4.5
2021/08/26,22:30,3.9,west,7.5
2021/08/26,22:40,3.9,west,6.2
2021/08/26,22:50,3.8,southwest,2.6
2021/08/26,23:00,3.8,southwest,3.8
2021/08/26,23:10,3.8,west-southwest,4.5
2021/08/26,23:20,3.9,west,6.0
2021/08/26,23:30,3.8,west-southwest,6.3
2021/08/26,23:40,3.9,west,6.7
2021/08/26,23:50,3.8,west,6.3
